sat.trackr.live / text

‹ back to catalog

STARLINK-32937

NORAD 63148 · 2025-043S

PAYLOAD ACTIVE UNKNOWN

§ Identity

Operator
Country
US
Launch date
2025-03-03
Launch site
AFETR
Launch vehicle
Mass (kg)
RCS (m²)

Purposes: comms

External: N2YO · Heavens-Above · Gunter

§ Orbital elements

Epoch: 2026-05-25T03:07:31.590336Z

Period
94.27 min
Inclination
42.9992°
Eccentricity
0.0001448
Mean motion
15.27585145 rev/d
Perigee alt
482.0 km
Apogee alt
484.0 km
Semi-major
6,861.2 km
B*
5.0646e-4
RAAN
304.4755°
Arg perigee
273.4256°
Mean anomaly
86.6430°
Rev number
6,905

§ Raw data

STARLINK-329371 63148U 25043S   26145.13022674  .00013703  00000+0  50646-3 0  99962 63148  42.9992 304.4755 0001448 273.4256  86.6430 15.27585145 69053

JSON: /api/v1/satellites/63148 · /tle

For live sub-satellite position, see the globe view (requires WebGL).

§ Visibility from observer

Set your observer location to see the next 7 days of passes ≥ 10°. The values pass through the URL so the page stays shareable.

No JS? Fill the form by hand. The geolocation button needs JavaScript.